This demonstration page uses our WeatherBlox Daily Observations layout. Learn more.

Left ArrowRight Arrow

Hourly Observations for June 21, 2017

Temp ( °F °C ) Dew Point ( °F °C ) Humidity (%) Winds ( mph kmh ) Pressure ( in mb ) Visibility ( mi km ) Precip ( " mm )
12:07 am 00:07 Cloudy 63 17 61 16 94 94 E 7 11 30.00 1016 10 16 N/A
12:27 am 00:27 Cloudy 64 18 61 16 88 88 SSE 8 13 29.97 1015 10 16 N/A
12:47 am 00:47 Mostly Cloudy 64 18 61 16 88 88 SSE 8 13 29.97 1015 10 16 N/A
1:07 am 01:07 Cloudy 64 18 63 17 94 94 SSE 6 9 30.00 1016 10 16 N/A
1:26 am 01:26 Cloudy 64 18 63 17 94 94 S 8 13 29.97 1015 10 16 N/A
1:47 am 01:47 Mostly Cloudy 64 18 61 16 88 88 S 10 17 29.97 1015 10 16 N/A
2:07 am 02:07 Clear 64 18 61 16 88 88 S 8 13 29.97 1015 10 16 N/A
2:27 am 02:27 Clear 64 18 63 17 94 94 S 7 11 29.97 1015 10 16 N/A
2:47 am 02:47 Clear 64 18 61 16 88 88 S 5 7 29.97 1015 10 16 N/A
3:07 am 03:07 Partly Cloudy 64 18 61 16 88 88 N N/A 29.97 1015 10 16 N/A
3:27 am 03:27 Partly Cloudy 63 17 61 16 94 94 SSE 3 6 29.97 1015 10 16 N/A
3:47 am 03:47 Clear 63 17 61 16 94 94 SSE 6 9 29.94 1014 10 16 N/A
4:07 am 04:07 Clear 64 18 61 16 88 88 S 5 7 29.94 1014 10 16 N/A
4:27 am 04:27 Partly Cloudy 64 18 61 16 88 88 N N/A 29.94 1014 10 16 N/A
4:47 am 04:47 Mostly Cloudy 63 17 61 16 94 94 NE 5 7 29.97 1015 10 16 N/A
5:07 am 05:07 Mostly Cloudy 63 17 61 16 94 94 E 3 6 29.97 1015 10 16 N/A
5:27 am 05:27 Partly Cloudy 63 17 61 16 94 94 N N/A 29.97 1015 10 16 N/A
5:47 am 05:47 Partly Cloudy 63 17 61 16 94 94 N N/A 29.97 1015 10 16 N/A
6:07 am 06:07 Mostly Cloudy 63 17 61 16 94 94 SSW 3 6 29.97 1015 10 16 N/A
6:27 am 06:27 Cloudy 64 18 63 17 94 94 S 7 11 29.97 1015 10 16 N/A
6:47 am 06:47 Cloudy 64 18 61 16 88 88 S 5 7 29.97 1015 10 16 N/A
7:07 am 07:07 Cloudy 66 19 63 17 88 88 N N/A 29.97 1015 10 16 N/A
7:27 am 07:27 Partly Cloudy 66 19 61 16 83 83 N N/A 29.97 1015 10 16 N/A
7:47 am 07:47 Sunny 66 19 63 17 88 88 SSE 3 6 29.97 1015 10 16 N/A
8:07 am 08:07 Partly Cloudy 68 20 63 17 83 83 N N/A 29.97 1015 10 16 N/A
8:27 am 08:27 Partly Cloudy 70 21 64 18 83 83 N N/A 29.94 1014 10 16 N/A
8:47 am 08:47 Sunny 72 22 64 18 78 78 N N/A 29.97 1015 10 16 N/A
9:07 am 09:07 Sunny 72 22 64 18 78 78 N N/A 29.97 1015 10 16 N/A
9:27 am 09:27 Sunny 73 23 64 18 74 74 SSE 5 7 29.94 1014 10 16 N/A
9:47 am 09:47 Sunny 73 23 64 18 74 74 SSE 5 7 29.94 1014 10 16 N/A
10:07 am 10:07 Sunny 73 23 64 18 74 74 SSE 5 7 29.94 1014 10 16 N/A
10:26 am 10:26 Sunny 75 24 64 18 69 69 S 6 9 29.94 1014 10 16 N/A
10:47 am 10:47 Sunny 75 24 64 18 69 69 SW 7 11 29.94 1014 10 16 N/A
11:07 am 11:07 Sunny 77 25 64 18 65 65 WSW 5 7 29.94 1014 10 16 N/A
11:27 am 11:27 Sunny 77 25 64 18 65 65 WSW 6 9 29.94 1014 10 16 N/A
11:47 am 11:47 Sunny 79 26 64 18 61 61 WNW 6 9 29.94 1014 10 16 N/A
12:06 pm 12:06 Sunny 81 27 64 18 58 58 W 6 9 29.94 1014 10 16 N/A
12:27 pm 12:27 Sunny 81 27 64 18 58 58 W 3 6 29.94 1014 10 16 N/A
12:47 pm 12:47 Sunny 81 27 64 18 58 58 N N/A 29.94 1014 10 16 N/A
1:07 pm 13:07 Sunny 82 28 64 18 55 55 NW 5 7 29.97 1015 10 16 N/A
1:27 pm 13:27 Sunny 82 28 64 18 55 55 W 7 11 29.94 1014 10 16 N/A
1:47 pm 13:47 Partly Cloudy 82 28 66 19 58 58 SW 7 11 29.94 1014 10 16 N/A
2:07 pm 14:07 Partly Cloudy 84 29 66 19 55 55 W 3 6 29.94 1014 10 16 N/A
2:27 pm 14:27 Sunny 84 29 66 19 55 55 W 8 13 29.94 1014 10 16 N/A
2:46 pm 14:46 Sunny 84 29 66 19 55 55 W 9 15 29.94 1014 10 16 N/A
3:07 pm 15:07 Sunny 86 30 66 19 52 52 WSW 9 15 29.94 1014 10 16 N/A
3:27 pm 15:27 Sunny 86 30 66 19 52 52 W 10 17 29.94 1014 10 16 N/A
3:47 pm 15:47 Partly Cloudy 86 30 66 19 52 52 WNW 8 13 29.94 1014 10 16 N/A
4:07 pm 16:07 Sunny 86 30 66 19 52 52 SW 6 9 29.94 1014 10 16 N/A
4:27 pm 16:27 Sunny 86 30 64 18 49 49 WNW 6 9 29.94 1014 10 16 N/A
4:47 pm 16:47 Sunny 88 31 66 19 49 49 WNW 10 17 29.91 1013 10 16 N/A
5:07 pm 17:07 Sunny 86 30 64 18 49 49 WSW 7 11 29.88 1012 10 16 N/A
5:27 pm 17:27 Sunny 86 30 66 19 52 52 W 8 13 29.94 1014 10 16 N/A
5:47 pm 17:47 Sunny 88 31 66 19 49 49 WNW 9 15 29.91 1013 10 16 N/A
6:07 pm 18:07 Mostly Cloudy 86 30 64 18 49 49 WNW 6 9 29.88 1012 10 16 N/A
6:27 pm 18:27 Partly Cloudy 86 30 66 19 52 52 W 9 15 29.88 1012 10 16 N/A
6:46 pm 18:46 Sunny 88 31 66 19 49 49 W 10 17 29.88 1012 10 16 N/A
7:07 pm 19:07 Partly Cloudy 88 31 66 19 49 49 WNW 8 13 29.88 1012 10 16 N/A
7:27 pm 19:27 Partly Cloudy 86 30 66 19 52 52 W 8 13 29.88 1012 10 16 N/A
7:47 pm 19:47 Partly Cloudy 88 31 66 19 49 49 WNW 7 11 29.88 1012 10 16 N/A
8:06 pm 20:06 Mostly Cloudy 86 30 68 20 55 55 WSW 7 11 29.88 1012 10 16 N/A
8:27 pm 20:27 Mostly Cloudy 86 30 68 20 55 55 SW 10 17 29.88 1012 10 16 N/A
8:47 pm 20:47 Partly Cloudy 84 29 68 20 58 58 SW 7 11 29.91 1013 10 16 N/A
9:07 pm 21:07 Sunny 84 29 68 20 58 58 SW 6 9 29.91 1013 10 16 N/A
9:27 pm 21:27 Partly Cloudy 82 28 68 20 62 62 SSW 3 6 29.91 1013 10 16 N/A
9:47 pm 21:47 Partly Cloudy 81 27 68 20 66 66 SSW 6 9 29.91 1013 10 16 N/A
10:07 pm 22:07 Clear 81 27 70 21 70 70 SSW 8 13 29.91 1013 10 16 N/A
10:26 pm 22:26 Clear 81 27 68 20 66 66 SSW 8 13 29.91 1013 10 16 N/A
10:47 pm 22:47 Partly Cloudy 79 26 68 20 70 70 SW 9 15 29.94 1014 10 16 N/A
11:07 pm 23:07 Partly Cloudy 79 26 68 20 70 70 SSW 7 11 29.94 1014 10 16 N/A
11:26 pm 23:26 Clear 77 25 68 20 74 74 SW 6 9 29.94 1014 10 16 N/A
11:47 pm 23:47 Partly Cloudy 77 25 68 20 74 74 SSW 5 7 29.94 1014 10 16 N/A

Powered by AerisWeather